ROCKY HARBOUR CS/NF, current weather conditions

sailwx.info

Last reported at 2015-Mar-01 22:23 UTC.
Time now 2015-Mar-03 12:47 UTC

Location: N 49°34' W 057°53'.
View on Google Maps.

See reports from other nearby stations

  
Tides and Currents Weather Stations Pressure Air Temp Water Temp Dewpoint Dewpoint Depression Visibility Wind Speed Wind Dir Waves Ship Positions
date/time (UTC)wind fromknots sea level pressurealtimeterstation pressurevisibilityair tempwater tempwave heightnotes
2015-Mar-03 11:00 320 11 gusting 23 -8.0
2015-Mar-03 10:00 330 9 gusting 23 -8.0
2015-Mar-03 09:00 320 10 gusting 19 -8.0
2015-Mar-03 08:00 330 9 gusting 19 -7.0
2015-Mar-03 07:00 320 9 gusting 18 -7.0
2015-Mar-03 06:00 330 10 gusting 20 -7.0
2015-Mar-03 05:00 350 9 gusting 20 -6.0
2015-Mar-03 04:00 350 8 gusting 17 -6.0
2015-Mar-03 03:00 330 8 gusting 15 -6.0
2015-Mar-03 02:00 330 5 -5.0
2015-Mar-03 01:00 310 4 -5.0
2015-Mar-03 00:00 300 6 -4.0
2015-Mar-02 23:00 270 5 -5.0
2015-Mar-02 22:00 090 7 -4.0
2015-Mar-02 21:00 070 5 -4.0
2015-Mar-02 20:00 080 4 -4.0
2015-Mar-02 19:00 140 2 -3.0
2015-Mar-02 18:00 140 6 -3.0
2015-Mar-02 17:00 150 5 -3.0
2015-Mar-02 16:00 160 7 -2.0
2015-Mar-02 15:00 160 7 -3.0
2015-Mar-02 14:00 170 7 -4.0
2015-Mar-02 13:00 160 7 -7.0
2015-Mar-02 12:00 160 6 -7.0
2015-Mar-02 11:00 160 7 -8.0
2015-Mar-02 10:00 160 4 -8.0
2015-Mar-02 09:00 160 6 -8.0
2015-Mar-02 08:00 160 5 -9.0
2015-Mar-02 07:00 160 4 -9.0
2015-Mar-02 06:00 150 6 -9.0
2015-Mar-02 05:00 160 3 -9.0
2015-Mar-02 03:00 220 6 -8.0
2015-Mar-02 02:00 210 5 -8.0
2015-Mar-02 01:00 220 5 -8.0
2015-Mar-02 00:00 240 6 -7.0
2015-Mar-01 23:00 240 6 -7.0
2015-Mar-01 22:00 230 5 -7.0
2015-Mar-01 21:00 250 6 -6.0
2015-Mar-01 20:00 260 11 gusting 19 -6.0
2015-Mar-01 19:00 260 10 gusting 15 -4.0
2015-Mar-01 18:00 250 9 gusting 16 -4.0
2015-Mar-01 17:00 260 11 gusting 17 -4.0
2015-Mar-01 16:00 260 9 gusting 15 -4.0
2015-Mar-01 15:00 260 12 gusting 18 -5.0
2015-Mar-01 14:00 270 6 -6.0
2015-Mar-01 13:00 260 9 -6.0
2015-Mar-01 12:00 260 9 -8.0